7 * 24
多渠道服务支持
NINGXIA-1 1是一颗中国发射的卫星,于北京时间2019年11月13日8时成功升空。该卫星是宁夏相关航天项目的重要组成部分,承担着特定的空间观测或技术验证任务,是中国商业航天领域地方合作卫星项目的典型实践,体现了中国在小卫星研制与发射领域的成熟能力。
中国
(CN)
| 数据来源 | 国际轨道数据 |
| 星历时间: | 2026-05-24T10:18:49+0800 1天前 查看轨道信息 |
| 半长轴: | 7264.891km |
| 偏心率: | 0.0010483 |
| 轨道倾角: | 45.006° |
| 近地点辐角 | 41.956° |
| 升交点赤经 | 287.509° |
| 平近点角 | 318.207° |
| 近地点: | 879.138km |
| 远地点: | 894.37km |
| 周期: | 102.708分钟 |
| 每日圈数: | 14.020361 |